www.pogodaiklimat.ru

Погода и климат >> Архив погоды >> Испания >> Madrid


АРХИВ ПОГОДЫ в Madrid

Время (UTC), дата Ветер
(напр.,м/с)
 
Видим.   Явления Облачность Т
(С)
Тd
(С)
f
(%)
Тe
(С)
Тes
(С)
Комфортность P
(гПа)
Po
(гПа)
Тmin
(С)
Tmax
(С)
R
(мм)
R24
(мм)
S
(см)
11 13.07 ЮВ 4 30 км 3/3 1000 м
[Cu hum]
+29.4 +16.1 45 +33 +41 душно 1012.7 949.1
10 13.07 ЮВ 4 11 км 3/3 600 м
[Cu hum]
+27.5 +16.3 50 +31 +38 душно 1013.4 949.5
12 13.07 Ю 3 30 км 3/3 1000 м
[Cu hum]
+29.7 +15.3 42 +32 +44 душно 1012.1 948.6
13 13.07 Ю 4 30 км 5/5 1000 м
[Cu hum]
+32.3 +14.2 33 +34 +40 душно 1011.1 948.2
14 13.07 Ю 4 27 км 5/5 1500 м
[Cu hum]
+32.7 +11.3 27 +33 +39 жарко 1010.5 947.6
15 13.07 ЮВ 5 15 км 5/5 1500 м
[Cu hum]
+31.9 +12.5 31 +33 +36 жарко 1010.1 947.1
17 13.07 Ю 6 25 км 4/4
[Cu hum]
+34.0 +8.4 21 +33 +34 жарко 1008.9 946.4
16 13.07 Ю 6 20 км 5/5
[Cu hum]
+33.8 +10.4 24 +33 +35 жарко 1009.4 946.8
18 13.07 Ю 5 30 км 3/3
[Cu hum]
+33.1 +9.2 23 +32 +33 жарко 1008.9 946.2 +34.1
19 13.07 Ю 4 30 км 3/3
[Cu hum]
+32.3 +9.2 24 +31 +31 жарко 1009.1 946.2
20 13.07 Ю 4 26 км 4/4 2000 м
[Cu hum]
+31.0 +8.5 25 +30 +30 жарко 1010.0 946.8
21 13.07 З 4 30 км 4/3 2000 м
[Cu hum Ci fib]
+30.2 +8.7 26 +30 +30 жарко 1011.1 947.6
23 13.07 В 3 30 км 1/0
[Ci fib]
+26.1 +9.6 35 +27 +27 жарко 1012.9 948.5
22 13.07 З 3 30 км 1/1 2000 м
[Cu hum Ci fib]
+28.5 +9.6 31 +29 +29 жарко 1011.9 948.1
00 14.07 ЮВ 4 30 км ясно +25.6 +9.0 35 +26 +26 жарко 1013.1 948.6
01 14.07 Ю 5 28 км ясно +24.9 +9.9 39 +26 +26 жарко 1013.2 948.6
02 14.07 ЮВ 4 27 км ясно +23.2 +10.0 43 +25 +25 комфорт 1013.7 948.7
03 14.07 ЮВ 3 30 км ясно +21.8 +10.5 49 +24 +24 комфорт 1014.2 948.8
05 14.07 Ю 2 30 км ясно +19.9 +10.2 54 +22 +22 комфорт 1015.5 949.7
04 14.07 Ю 2 23 км ясно +20.4 +10.1 52 +23 +23 комфорт 1014.9 949.3
06 14.07 С 1 30 км ясно +19.1 +10.9 59 +21 +22 комфорт 1016.2 950.2 +18.8
07 14.07 Ю 2 20 км ясно +23.4 +11.4 47 +26 +29 жарко 1015.8 950.7
08 14.07 Ю 2 30 км ясно +25.5 +11.9 43 +27 +34 жарко 1015.5 950.9
09 14.07 ЮЗ 2 30 км ясно +26.7 +12.1 40 +28 +40 жарко 1015.1 950.8
11 14.07 ЮЗ 4 28 км ясно +29.9 +9.7 28 +30 +42 жарко 1014.0 950.4
10 14.07 Ю 5 30 км ясно +28.8 +12.2 36 +30 +39 жарко 1014.4 950.6
12 14.07 Ю 5 30 км ясно +31.5 +7.9 23 +30 +40 жарко 1013.5 950.1
13 14.07 Ю 5 30 км ясно +32.0 +6.4 20 +30 +40 жарко 1013.0 949.7
14 14.07 Ю 5 25 км ясно +32.6 +6.2 19 +31 +40 жарко 1012.3 949.2
15 14.07 Ю 5 30 км ясно +33.0 +2.7 15 +30 +37 жарко 1011.8 948.8
17 14.07 Ю 6 30 км ясно +33.2 +4.3 16 +31 +32 жарко 1010.7 947.8
16 14.07 Ю 7 30 км ясно +33.5 +1.6 13 +30 +33 жарко 1011.3 948.4
18 14.07 ЮЗ 5 30 км ясно +32.4 +2.9 15 +30 +31 жарко 1010.7 947.6 +33.8
19 14.07 ЮЗ 6 30 км ясно +31.3 +1.8 15 +29 +29 жарко 1011.0 947.7
20 14.07 ЮЗ 5 30 км ясно +29.8 +1.5 16 +27 +27 жарко 1011.8 948.2
21 14.07 З 3 30 км ясно +28.2 +3.1 20 +26 +26 жарко 1013.1 949.1
23 14.07 ЮЗ 4 30 км ясно +25.9 +5.4 27 +25 +25 комфорт 1014.3 949.7
22 14.07 ЮЗ 4 30 км ясно +27.0 +3.5 22 +26 +26 жарко 1013.8 949.5
00 15.07 ЮЗ 2 30 км ясно +24.6 +5.4 29 +24 +24 комфорт 1014.8 949.9
01 15.07 ЮВ 2 24 км ясно +20.8 +4.1 33 +22 +22 комфорт 1015.5 949.8
02 15.07 Ю 1 10 км ясно +19.9 +4.8 37 +22 +22 комфорт 1015.4 949.5
03 15.07 С 2 30 км ясно +17.8 +5.6 45 +18 +18 прохладно 1016.1 949.7
05 15.07 С 1 30 км ясно +15.0 +6.5 57 +16 +16 прохладно 1017.1 950.0
04 15.07 С 2 30 км ясно +15.8 +6.5 54 +16 +16 прохладно 1016.6 949.7
06 15.07 С 1 30 км ясно +15.0 +7.0 59 +16 +17 прохладно 1017.4 950.3 +14.5
07 15.07 ЮВ 2 30 км 4/0
[Ci]
+20.3 +9.3 49 +22 +25 комфорт 1016.4 950.6
08 15.07 Ю 4 30 км 5/0
[Ci]
+22.2 +10.4 47 +24 +29 комфорт 1016.0 950.6
09 15.07 Ю 4 27 км 5/0
[Ac trans Cc]
+24.5 +11.4 44 +26 +32 жарко 1015.2 950.4
11 15.07 ЮЗ 5 30 км 6/1 1500 м
[Cu hum Ac trans Ci fib]
+27.3 +10.8 36 +28 +35 жарко 1014.2 950.0
10 15.07 Ю 4 30 км 5/1
[Cu hum Ac trans Ci fib]
+26.0 +10.9 39 +27 +34 жарко 1014.7 950.2
12 15.07 ЮЗ 6 30 км 8/1 1500 м
[Cu hum Ac und Ci sp]
+27.8 +8.6 30 +28 +32 жарко 1013.4 949.4
13 15.07 Ю 5 22 км 3/1 1500 м
[Cu hum Ac As Ci sp]
+28.6 +6.9 25 +28 +37 жарко 1012.9 949.0
14 15.07 ЮЗ 5 30 км 3/1 2000 м
[Cu hum Ac As Ci sp]
+29.3 +6.6 24 +28 +35 жарко 1012.3 948.6
15 15.07 ЮЗ 7 30 км 3/1 2000 м
[Cu hum Ac As Ci sp]
+29.4 +5.1 21 +28 +31 жарко 1012.3 948.6
17 15.07 ЮЗ 7 30 км 1/1 1500 м
[Cu hum]
+29.2 +7.0 25 +28 +29 жарко 1011.7 948.0
16 15.07 ЮЗ 7 30 км 1/1 2000 м
[Cu hum Ci sp]
+29.3 +5.4 22 +28 +30 жарко 1011.9 948.2
18 15.07 ЮЗ 8 30 км 1/1 1500 м
[Cu hum]
+28.2 +6.1 25 +27 +28 жарко 1011.5 947.6 +29.9
19 15.07 ЮЗ 8 30 км 1/1 1500 м
[Cu hum]
+26.7 +7.3 29 +26 +26 жарко 1012.0 947.8
20 15.07 ЮЗ 8 30 км ясно +25.0 +7.7 33 +25 +25 комфорт 1013.0 948.4
21 15.07 ЮЗ 8 30 км 3/0
[Ac As]
+24.0 +7.2 34 +24 +24 комфорт 1013.9 949.0
23 15.07 ЮЗ 5 30 км 6/0
[Ac As Cs]
+22.9 +7.1 36 +24 +24 комфорт 1014.5 949.3
22 15.07 ЮЗ 7 30 км н/о +23.6 +6.7 34 +24 +24 комфорт 1014.1 949.1
00 16.07 З 6 30 км 8/1 1350 м
[Cb cap Ac As Cs]
+22.1 +7.2 38 +23 +23 комфорт 1014.9 949.5
01 16.07 З 5 20 км 9/1 1350 м
[Cb cap Ac As Cs]
+21.4 +8.0 42 +22 +22 комфорт 1015.3 949.7
02 16.07 СВ 2 30 км 9/0
[Ac As Cs]
+19.9 +8.2 47 +21 +21 комфорт 1016.2 950.3
03 16.07 В 2 30 км 1/0
[Ac cuf Ci fib]
+17.9 +7.8 52 +19 +19 по сезону 1016.1 949.8
05 16.07 СВ 3 30 км ясно +16.4 +8.3 59 +16 +16 прохладно 1017.3 950.5
04 16.07 ЮВ 2 30 км 1/0
[Ac cuf Ci fib]
+17.2 +8.4 56 +18 +18 по сезону 1016.4 949.9
06 16.07 Ю 3 30 км ясно +18.3 +9.7 57 +19 +19 по сезону 1017.0 950.7 +15.8
07 16.07 СЗ 4 30 км ясно +20.3 +9.6 50 +22 +24 комфорт 1016.9 951.1
08 16.07 С 2 30 км ясно +21.4 +10.5 50 +23 +30 комфорт 1017.0 951.4
09 16.07 СЗ 3 30 км ясно +23.1 +10.1 44 +25 +35 комфорт 1016.7 951.4
11 16.07 С 2 24 км 1/1 1500 м
[Cu hum]
+25.9 +8.0 32 +26 +42 жарко 1016.4 951.7
10 16.07 С 2 30 км 1/1
[Cu hum]
+24.6 +8.0 35 +25 +40 комфорт 1016.8 951.8
12 16.07 С 3 30 км 1/1 1500 м
[Cu hum]
+27.1 +8.7 31 +27 +43 жарко 1015.9 951.5
13 16.07 СЗ 2 30 км 1/1 2000 м
[Cu hum]
+28.3 +8.7 29 +28 +45 жарко 1015.3 951.2
14 16.07 Ю 3 30 км 5/5 2000 м
[Sc]
+29.0 +7.7 26 +28 +36 жарко 1014.8 950.9
15 16.07 С 3 30 км 6/6 2000 м
[Sc diur, vesp]
+29.3 +8.8 28 +29 +33 жарко 1014.4 950.6
17 16.07 В 2 30 км 1/1 2000 м
[Cu hum]
+29.5 +8.6 27 +29 +34 жарко 1013.9 950.2
16 16.07 В 4 30 км 3/3 2000 м
[Sc diur, vesp]
+30.0 +9.1 27 +29 +34 жарко 1013.9 950.3
18 16.07 С 2 30 км 1/0
[Ac cuf]
+29.4 +8.8 28 +29 +31 жарко 1014.1 950.4 +30.3
19 16.07 С 3 30 км 1/0
[Ac cuf]
+27.9 +9.1 31 +28 +28 жарко 1014.6 950.5
20 16.07 С 3 30 км 1/0
[Ac cuf]
+25.8 +8.9 34 +26 +26 жарко 1015.4 950.8
21 16.07 С 3 30 км 1/0
[Ac cuf]
+24.2 +8.3 36 +25 +25 комфорт 1016.3 951.3
23 16.07 С 2 30 км ясно +23.0 +10.6 45 +25 +25 комфорт 1017.0 951.7
22 16.07 СВ 3 30 км ясно +24.2 +10.3 41 +25 +25 комфорт 1016.6 951.6
00 17.07 С 2 30 км ясно +21.7 +11.1 51 +24 +24 комфорт 1017.6 952.0
01 17.07 С 4 30 км ясно +20.8 +11.4 55 +23 +23 комфорт 1017.5 951.8
02 17.07 С 4 30 км ясно +19.9 +11.4 58 +22 +22 комфорт 1017.7 951.8
03 17.07 С 4 30 км ясно +19.2 +11.3 60 +20 +20 по сезону 1017.8 951.7
05 17.07 С 3 30 км 1/0
[Ac trans]
+17.3 +10.9 66 +17 +17 прохладно 1018.7 952.1
04 17.07 С 3 30 км ясно +18.0 +11.2 64 +18 +18 по сезону 1018.1 951.7
06 17.07 С 3 30 км ясно +18.1 +11.1 64 +18 +19 по сезону 1018.6 952.2 +17.2
07 17.07 С 4 25 км ясно +19.9 +11.0 56 +21 +24 комфорт 1018.2 952.2
08 17.07 С 3 30 км ясно +22.5 +11.6 50 +25 +30 комфорт 1017.1 951.7
09 17.07 С 2 30 км ясно +25.0 +11.3 42 +26 +37 жарко 1016.2 951.4
11 17.07 ЮЗ 2 30 км ясно +29.7 +9.9 29 +30 +48 жарко 1014.4 950.7
10 17.07 СЗ 2 30 км ясно +27.3 +10.9 36 +28 +44 жарко 1015.3 951.1
12 17.07 ЮЗ 4 30 км ясно +31.1 +9.3 26 +30 +45 жарко 1013.4 950.0
13 17.07 ЮВ 2 30 км 1/1 2000 м
[Cu hum]
+32.0 +7.9 22 +31 +48 жарко 1012.2 949.0
14 17.07 Ю 3 30 км 1/1
[Cu hum]
+32.7 +8.2 22 +31 +45 жарко 1011.3 948.3
15 17.07 ЮЗ 3 30 км 1/1 2000 м
[Cu hum]
+33.7 +7.8 20 +32 +43 жарко 1010.3 947.6
17 17.07 ЮВ 3 30 км н/о +34.0 +6.3 18 +32 +32 жарко 1008.6 946.0
16 17.07 СЗ 2 30 км ясно +33.8 +7.7 20 +32 +41 жарко 1009.3 946.7
18 17.07 ЮЗ 3 30 км ясно +34.0 +4.2 15 +31 +33 жарко 1008.3 945.7 +34.3
19 17.07 ЮВ 2 30 км ясно +32.7 +4.2 17 +30 +30 жарко 1008.5 945.6
20 17.07 СВ 1 30 км ясно +28.2 +5.4 23 +27 +27 жарко 1009.4 945.7
21 17.07 С 2 30 км ясно +26.6 +6.5 28 +26 +26 жарко 1010.1 946.0
23 17.07 ЮВ 2 30 км ясно +25.2 +7.2 32 +25 +25 комфорт 1010.8 946.3
22 17.07 СВ 2 30 км ясно +24.7 +8.1 35 +25 +25 комфорт 1010.9 946.3
00 18.07 ЮВ 3 30 км н/о +25.1 +12.9 47 +27 +27 жарко 1010.6 946.3
01 18.07 В 2 30 км ясно +24.0 +12.2 48 +26 +26 жарко 1010.9 946.3
02 18.07 В 2 30 км ясно +22.3 +11.1 49 +24 +24 комфорт 1011.6 946.5
03 18.07 С 2 30 км ясно +20.7 +11.1 54 +23 +23 комфорт 1011.8 946.4
05 18.07 С 1 30 км ясно +18.2 +10.2 60 +19 +19 по сезону 1013.2 947.2
04 18.07 С 2 30 км ясно +19.0 +10.5 58 +21 +21 комфорт 1012.8 947.0
06 18.07 СВ 2 30 км ясно +19.4 +11.3 59 +21 +22 комфорт 1013.3 947.6 +18.2
07 18.07 СВ 2 30 км ясно +23.2 +10.2 44 +25 +28 комфорт 1013.0 948.0
08 18.07 Ю 2 30 км ясно +24.8 +8.9 36 +25 +32 комфорт 1013.2 948.5
09 18.07 Ю 2 30 км ясно +26.3 +8.6 33 +27 +37 жарко 1012.8 948.5
11 18.07 ЮЗ 4 30 км 1/1 600 м
[Cu hum]
+30.0 +8.4 26 +29 +40 жарко 1011.6 948.0
10 18.07 Ю 3 30 км ясно +28.1 +8.0 28 +28 +41 жарко 1012.3 948.4
12 18.07 ЮЗ 6 30 км 1/1 600 м
[Cu hum]
+31.3 +9.3 26 +31 +37 жарко 1011.0 947.8
13 18.07 ЮЗ 6 30 км 1/1
[Cu hum]
+32.1 +7.8 22 +31 +38 жарко 1010.3 947.3
14 18.07 ЮЗ 6 30 км 1/1 1000 м
[Cu hum]
+32.9 +7.5 21 +31 +37 жарко 1010.0 947.1
15 18.07 ЮЗ 7 30 км 1/1 600 м
[Cu hum]
+33.3 +6.8 19 +31 +35 жарко 1009.3 946.6
17 18.07 ЮЗ 6 30 км 1/1 1000 м
[Cu hum]
+33.1 +5.8 18 +31 +33 жарко 1009.1 946.3
16 18.07 ЮЗ 6 30 км 1/1 1000 м
[Cu hum]
+33.2 +5.1 17 +31 +34 жарко 1009.3 946.5
18 18.07 З 6 30 км ясно +32.5 +7.6 21 +31 +32 жарко 1009.4 946.5 +33.8
19 18.07 ЮЗ 5 30 км ясно +31.4 +8.1 23 +30 +30 жарко 1009.7 946.6
20 18.07 З 4 30 км ясно +29.8 +8.2 26 +29 +29 жарко 1010.3 946.8
21 18.07 З 4 30 км ясно +28.6 +8.0 27 +28 +28 жарко 1011.2 947.5
23 18.07 С 3 25 км ясно +24.2 +8.0 36 +25 +25 комфорт 1012.8 948.0
22 18.07 З 2 30 км ясно +26.0 +8.1 32 +26 +26 жарко 1012.2 947.8
00 19.07 СВ 1 25 км ясно +21.4 +8.0 42 +22 +22 комфорт 1013.4 947.9
01 19.07 С 2 25 км ясно +19.6 +8.0 47 +21 +21 комфорт 1013.7 947.9
02 19.07 С 2 30 км ясно +18.6 +8.1 50 +19 +19 прохладно 1013.9 947.9
03 19.07 С 3 30 км ясно +17.1 +8.0 55 +17 +17 прохладно 1014.6 948.2
05 19.07 С 2 30 км ясно +15.5 +8.0 61 +15 +15 прохладно 1015.6 948.7
04 19.07 С 2 30 км ясно +16.0 +7.9 59 +16 +16 прохладно 1015.2 948.5
06 19.07 С 1 30 км ясно +16.0 +8.6 61 +17 +18 по сезону 1016.0 949.2 +15.4
07 19.07 С 1 30 км ясно +19.7 +8.5 48 +22 +25 комфорт 1015.3 949.4
08 19.07 ЮЗ 1 30 км ясно +22.5 +8.4 40 +24 +31 комфорт 1014.6 949.3
09 19.07 ЮЗ 1 25 км ясно +25.5 +8.3 34 +26 +39 жарко 1013.8 949.2
11 19.07 Ю 3 25 км ясно +30.0 +7.7 25 +29 +45 жарко 1012.2 948.6
10 19.07 ЮВ 2 20 км ясно +28.8 +8.6 28 +28 +43 жарко 1012.8 949.0
12 19.07 Ю 4 30 км ясно +31.0 +7.3 23 +30 +43 жарко 1011.7 948.3
13 19.07 Ю 5 25 км ясно +32.1 +4.9 18 +30 +40 жарко 1011.0 947.9
14 19.07 ЮЗ 7 20 км ясно +33.0 +3.6 16 +30 +35 жарко 1010.5 947.6
15 19.07 ЮЗ 6 30 км ясно +33.3 +3.8 16 +31 +35 жарко 1009.9 947.1
17 19.07 ЮЗ 6 30 км ясно +32.7 +4.2 17 +30 +32 жарко 1009.4 946.5
16 19.07 ЮЗ 6 26 км ясно +33.2 +4.0 16 +31 +34 жарко 1009.5 946.7
18 19.07 З 6 30 км ясно +31.9 +4.1 17 +29 +30 жарко 1009.4 946.3 +33.8
19 19.07 З 5 30 км ясно +31.0 +5.4 20 +29 +29 жарко 1009.8 946.5
20 19.07 З 4 30 км ясно +29.4 +6.6 24 +28 +28 жарко 1010.5 946.9
21 19.07 ЮЗ 4 30 км ясно +28.1 +7.3 27 +27 +27 жарко 1011.5 947.6
23 19.07 ЮЗ 4 30 км н/о +25.8 +5.5 27 +25 +25 комфорт 1012.0 947.6
22 19.07 ЮЗ 5 30 км ясно +27.4 +5.8 25 +26 +26 жарко 1011.8 947.7
00 20.07 С 3 30 км ясно +23.4 +4.2 29 +23 +23 комфорт 1012.2 947.2
01 20.07 СЗ 1 30 км ясно +20.0 +5.6 39 +22 +22 комфорт 1013.2 947.5
02 20.07 С 3 23 км н/о +17.9 +5.7 45 +18 +18 прохладно 1013.5 947.3
03 20.07 ЮВ 1 30 км ясно +16.8 +5.2 46 +18 +18 прохладно 1013.8 947.3
05 20.07 С 2 28 км ясно +15.0 +4.9 51 +15 +15 холодно 1014.6 947.6
04 20.07 СЗ 1 30 км ясно +15.7 +5.4 50 +16 +16 прохладно 1014.1 947.3
06 20.07 С 1 22 км ясно +15.5 +5.7 52 +16 +17 прохладно 1014.7 947.9 +14.8
07 20.07 С 1 20 км ясно +19.2 +5.0 39 +21 +24 комфорт 1014.1 948.1
08 20.07 С 2 29 км ясно +21.7 +4.8 33 +22 +29 комфорт 1013.7 948.2
09 20.07 Ю 2 22 км ясно +24.7 +5.3 29 +24 +36 комфорт 1012.6 947.9

 

Местоположение метеостанции Madrid (Испания): широта 40.45 долгота -3.55 высота над уровнем моря 582 м.

В архиве по умолчанию представлена погода в Madrid за последнюю неделю. Архивные данные за месяц целиком и за предыдущие месяцы, начиная с января 2011 года, Вы можете получить, выбрав интересующий диапазон дат из раскрывающегося списка и нажав кнопку "Ввод!".


*Определитесь, кто Вы:
робот инопланетянин человек

Внимание! Время в таблицах - всемирное. Для получения местного времени необходимо прибавить поправку, которая в Madrid равна 1 ч.

Смотрите также архив погоды в соседних городах и на ближайших метеорологических станциях:

Погода в Madrid Retiro (Испания) (12 км)
Погода в Madrid Universitaria (Испания) (14 км)
Погода в Madrid Airport (Испания) (22 км)
Погода в Madri-Colmenar (Испания) (33 км)
Погода в Guadalajara (Испания) (39 км)
Погода в Navacerrada (Испания) (54 км)
Погода в Segovia (Испания) (74 км)
Погода в Toledo (Испания) (76 км)
Погода в Avila (Испания) (100 км)
Погода в Cuenca (Испания) (128 км)

Пояснения к столбцам:

Ветер - указаны скорость ветра в м/с - средняя за 10 мин, порывы в срок и между сроками (в фигурных скобках) и направление, откуда дует ветер: С - северный, СВ - северо-восточный, В - восточный, ЮВ - юго-восточный, Ю - южный, ЮЗ - юго-западный, З - западный, СЗ - северо-западный.
Видимость - горизонтальная дальность видимости в метрах или километрах. При видимости от 1 до 10 км при отсутствии осадков обычно наблюдается дымка, при ухудшении видимости до 1 км и менее - туман. В сухую погоду видимость может ухудшаться дымом, пылью или мглою.
Явления - указаны атмосферные явления, наблюдавшиеся в срок или в последний час перед сроком; фигурными скобками обозначены явления, наблюдавшиеся между сроками (за 1-3 часа до срока); квадратными скобками обозначены град или гололедные отложения с указанием их диаметра в мм.
Облачность - указаны через наклонную черту общая и нижняя облачность в баллах и высота нижней границы облаков в метрах; квадратными скобками обозначены формы облаков: Ci - перистые, Cs - перисто-слоистые, Cc - перисто-кучевые, Ac - высококучевые, As - высокослоистые, Sc - слоисто-кучевые, Ns - слоисто-дождевые, Cu - кучевые, Cb - кучево-дождевые. Подробнее классификацию облаков см. в Атласе облаков (PDF).
T - Температура воздуха - температура, измеренная на высоте 2 м над землей.
Td - Температура точки росы - температура, при понижении до которой содержащийся в воздухе водяной пар достигнет насыщения.
f - Относительная влажность воздуха - влажноcть воздуха, измеренная на высоте 2 м над землей.
Te - Эффективная температура - температура, которую ощущает одетый по сезону человек в тени. Характеристика душности погоды. При расчете учитывается влияние влажности воздуха и скорости ветра на теплоощущения человека.
Tes - Эффективная температура на солнце - температура, которую ощущает человек, с поправкой на солнечный нагрев. Характеристика знойности погоды. Зависит от высоты солнца над горизонтом, облачности и скорости ветра. Ночью, в пасмурную погоду, а также при ветре 12 м/с и более поправка равна нулю.
P - Атмосферное давление - приведенное к уровню моря атмосферное давление.
Po - Атмосферное давление - измеренное на уровне метеостанции атмосферное давление.
Tmin - Минимальная температура - минимум температуры воздуха на высоте 2 м над землей.
Tmax - Максимальная температура - максимум температуры воздуха на высоте 2 м над землей.
R - Количество осадков - Количество выпавших осадков за период времени, мм. При наведении курсора мыши на число - период времени, за который выпало указанное количество осадков.
R24 - Количество осадков - Количество выпавших осадков за 24 часа, мм.
S - Снежный покров - Высота снежного покрова, см. При наведении курсора мыши на число - состояние снежного покрова и степень покрытия местности в баллах.